This is the latest recevied weather packets stored in our database for station/object IK2RLN-10. If no packets are shown the sender has not sent any weather packets the latest 10 day(s).
| Time | Temp. | Humidity | Pressure | Rain* | Wind** | Luminosity | Snow |
|---|---|---|---|---|---|---|---|
| 1777144253 | 22.78° C | 46% | 1016.4 hPa | - | - | - | - |
| 1777143085 | 22.78° C | 45% | 1016.1 hPa | - | - | - | - |
| 1777143053 | 22.78° C | 45% | 1016.1 hPa | - | - | - | - |
| 1777141853 | 22.78° C | 45% | 1015.9 hPa | - | - | - | - |
| 1777140653 | 22.78° C | 45% | 1015.7 hPa | - | - | - | - |
| 1777139452 | 23.33° C | 44% | 1015.4 hPa | - | - | - | - |
| 1777138251 | 23.33° C | 43% | 1015.4 hPa | - | - | - | - |
| 1777137051 | 21.11° C | 48% | 1015.5 hPa | - | - | - | - |
| 1777129737 | 20.56° C | 48% | 1015.6 hPa | - | - | - | - |
| 1777129698 | 20.56° C | 48% | 1015.6 hPa | - | - | - | - |
| 1777127311 | 20.56° C | 48% | 1015.9 hPa | - | - | - | - |
| 1777127267 | 20.56° C | 48% | 1015.9 hPa | - | - | - | - |
| 1777125465 | 21.67° C | 45% | 1016.1 hPa | - | - | - | - |
| 1777125447 | 21.67° C | 45% | 1016.2 hPa | - | - | - | - |
| 1777125425 | 21.67° C | 45% | 1016.1 hPa | - | - | - | - |
| 1777125082 | 21.67° C | 45% | 1016.1 hPa | - | - | - | - |
| 1777125048 | 21.67° C | 45% | 1016.1 hPa | - | - | - | - |
| 1777123847 | 21.67° C | 46% | 1016.4 hPa | - | - | - | - |
| 1777122647 | 21.67° C | 47% | 1016.6 hPa | - | - | - | - |
| 1777121447 | 21.67° C | 47% | 1016.7 hPa | - | - | - | - |
| 1777120288 | 21.67° C | 47% | 1016.9 hPa | - | - | - | - |
| 1777120246 | 21.67° C | 47% | 1016.9 hPa | - | - | - | - |
| 1777119085 | 21.11° C | 47% | 1016.9 hPa | - | - | - | - |
| 1777119046 | 21.11° C | 47% | 1016.9 hPa | - | - | - | - |
| 1777117846 | 21.11° C | 47% | 1017.1 hPa | - | - | - | - |
* Rain since midnight (hover to see other rain measurements)
** Current wind speed in m/s (hover to see current wind gust speed)